Lakehurst, NJ

3:04 PM EDT on October 01, 2016 (GMT -0400)
Lakehurst Naes

Weather History for KNEL - November, 2012

Change the Weather History Date:

Wednesday, November 7, 2012

  Actual Average Record
Temperature  
Mean Temperature 38 °F -  
Max Temperature 33 °F 55 °F 73 °F (1996)
Min Temperature 33 °F 39 °F 28 °F (2000)
Degree Days  
Heating Degree Days 27    
Moisture  
Dew Point 32 °F    
Average Humidity 81    
Maximum Humidity 100    
Minimum Humidity 61    
Precipitation  
Precipitation 0.00 in - - ()
Sea Level Pressure  
Sea Level Pressure 29.86 in    
Wind  
Wind Speed 8 mph (North)    
Max Wind Speed 12 mph    
Max Gust Speed 24 mph    
Averages and records for this station are not official NWS values.
T = Trace of Precipitation, MM = Missing Value Source: NWS Daily Summary

Daily Weather History Graph

Daily Weather History Graph

Search for Another Location

Airport or City:

Trip Planner

Search our weather history database for the weather conditions in past years. The results will help you decide how hot, cold, wet, or windy it might be!

Date:

Astronomy

Nov. 07, 2012 Rise Set
Actual Time 6:33 AM EST 4:47 PM EST
Civil Twilight 6:05 AM EST 5:16 PM EST
Nautical Twilight 5:33 AM EST 5:48 PM EST
Astronomical Twilight 5:01 AM EST 6:20 PM EST
Moon No Moon Rise 12:55 PM EST (11/7)
Length of Visible Light 11h 10m
Length of Day
10h 13m
Last Quarter, 43% of the Moon is Illuminated
Nov 7
Last Quarter
Nov 13
New
Nov 20
First Quarter
Nov 28
Full
Dec 6
Last Quarter

Hourly Weather History & Observations

Time (EST) Temp. Windchill Dew Point Humidity Pressure Visibility Wind Dir Wind Speed Gust Speed Precip Events Conditions
12:00 AM 39.9 °F 35.1 °F 28.0 °F 63% 30.01 in - Variable 6.9 mph - N/A   Scattered Clouds
1:22 AM - - - N/A% - - North - - N/A   Unknown
2:00 AM 42.1 °F 38.4 °F 32.0 °F 67% 29.96 in - Variable 5.8 mph - N/A   Scattered Clouds
2:27 AM 42.8 °F 39.3 °F 33.8 °F 70% 29.95 in - Variable 5.8 mph - N/A   Overcast
3:00 AM 43.0 °F 37.2 °F 34.0 °F 71% 29.93 in - NE 10.4 mph 19.6 mph N/A   Overcast
3:34 AM 42.8 °F 37.0 °F 33.8 °F 70% 29.92 in - NE 10.4 mph 20.7 mph N/A   Scattered Clouds
4:00 AM 42.1 °F 37.1 °F 32.0 °F 67% 29.91 in - NNE 8.1 mph 16.1 mph N/A   Scattered Clouds
4:30 AM 42.8 °F 37.0 °F 30.2 °F 61% 29.89 in - NNE 10.4 mph 16.1 mph N/A   Mostly Cloudy
4:39 AM 42.8 °F 36.6 °F 30.2 °F 61% 29.89 in - NNE 11.5 mph 19.6 mph N/A   Overcast
4:50 AM 41.0 °F 34.3 °F 30.2 °F 65% 29.90 in - NE 11.5 mph 18.4 mph N/A   Overcast
6:00 AM 41.0 °F 35.8 °F 30.9 °F 67% 29.91 in - NNE 8.1 mph - N/A   Overcast
7:00 AM 41.0 °F 36.4 °F 30.9 °F 67% 29.90 in - Variable 6.9 mph - N/A   Overcast
8:00 AM 41.0 °F 36.4 °F 30.9 °F 67% 29.90 in - NNE 6.9 mph - N/A   Overcast
9:00 AM 41.0 °F 35.2 °F 30.9 °F 67% 29.88 in - NNE 9.2 mph - N/A   Overcast
10:00 AM 41.0 °F 35.8 °F 30.9 °F 67% 29.86 in - NNE 8.1 mph 19.6 mph N/A   Overcast
11:00 AM 39.9 °F 33.9 °F 33.1 °F 77% 29.84 in - North 9.2 mph 24.2 mph N/A Rain Light Rain
11:45 AM 35.6 °F 29.9 °F 33.8 °F 93% 29.81 in - Variable 6.9 mph 16.1 mph N/A Snow Light Snow
12:00 PM 35.6 °F 29.9 °F 33.8 °F 93% 29.81 in - Variable 6.9 mph - N/A Rain Light Rain
12:08 PM 35.6 °F 28.0 °F 33.8 °F 93% 29.80 in - NNW 10.4 mph 19.6 mph N/A Snow Light Snow
12:14 PM 36.0 °F 29.0 °F 34.0 °F 93% 29.81 in - North 9.2 mph 19.6 mph N/A Snow Light Snow
12:21 PM 35.6 °F 29.2 °F 33.8 °F 93% 29.80 in - NNW 8.1 mph 20.7 mph N/A Snow Light Snow
1:29 PM 35.6 °F 28.6 °F 33.8 °F 93% 29.81 in - NNW 9.2 mph - N/A Rain Light Rain
1:48 PM 35.6 °F 29.9 °F 33.8 °F 93% 29.81 in - Variable 6.9 mph - N/A Snow Light Snow
2:00 PM 35.1 °F 30.1 °F 33.1 °F 92% 29.81 in - Variable 5.8 mph - N/A Snow Light Snow
3:00 PM 33.1 °F 27.7 °F 32.0 °F 96% 29.81 in - Variable 5.8 mph - N/A Snow Heavy Snow
4:00 PM 33.1 °F 26.1 °F 32.0 °F 96% 29.82 in - North 8.1 mph 18.4 mph N/A Snow Snow
5:00 PM 33.1 °F 26.9 °F 32.0 °F 96% 29.81 in - North 6.9 mph 19.6 mph N/A Snow Heavy Snow
6:22 PM - - - N/A% - - North - - N/A   Unknown
7:00 PM 33.1 °F 24.9 °F 30.9 °F 92% 29.82 in - North 10.4 mph 19.6 mph N/A Snow Snow
8:00 PM 33.1 °F 26.9 °F 32.0 °F 96% 29.82 in - Variable 6.9 mph 19.6 mph N/A Snow Heavy Snow
9:00 PM 33.1 °F 26.9 °F 32.0 °F 96% 29.82 in - Variable 6.9 mph 17.3 mph N/A Snow Heavy Snow
10:00 PM 33.1 °F 26.9 °F 32.0 °F 96% 29.80 in - NNW 6.9 mph - N/A Snow Heavy Snow
11:00 PM 33.1 °F 26.1 °F 33.1 °F 100% 29.78 in - NNW 8.1 mph - N/A Snow Heavy Snow